Location: Trout Lake
(45.9980°N, 121.5270°W)
Time: 18:59:30
(UTC-08:00)

Cosmos 1428 Rocket - Pass Details

Date: 06 December 2023
Orbit: 948 x 987 km, 82.9° (Epoch: 22 February)

Event Time Altitude Azimuth Distance (km) Brightness Sun altitude
Rises 17:36:39 0° 177° (S) 3,682 7.7 -12.6°
Reaches altitude 10° 17:39:11 10° 174° (S) 2,736 7.0 -13.0°
Maximum altitude 17:45:23 66° 94° (E) 1,070 4.5 -14.0°
Drops below altitude 10° 17:51:36 10° 14° (NNE) 2,739 6.6 -15.1°
Sets 17:54:08 0° 11° (NNE) 3,686 7.2 -15.5°
